Location: Erp
(42.9417°N, 1.2009°E)
Time: 10:35:49
(UTC+00:00)

Cosmos 2369 Rocket - Pass Details

Date: 12 January 2026
Orbit: 826 x 853 km, 71.0° (Epoch: 11 February)

Event Time Altitude Azimuth Distance (km) Brightness Sun altitude
Rises 17:22:22 0° 335° (NNW) 3,429 5.4 -7.4°
Reaches altitude 10° 17:24:50 10° 336° (NNW) 2,488 4.7 -7.8°
Maximum altitude 17:30:34 85° 66° (ENE) 858 2.2 -8.8°
Drops below altitude 10° 17:36:14 10° 155° (SSE) 2,460 4.6 -9.7°
Sets 17:38:40 0° 156° (SSE) 3,387 5.3 -10.2°
